Time,TemperatureF,DewpointF,PressureIn,WindDirection,WindDirectionDegrees,WindSpeedMPH,WindSpeedGustMPH,Humidity,HourlyPrecipIn,Conditions,Clouds,dailyrainin,SoftwareType,DateUTC
2013-02-17 00:10:00,20.3,13.6,29.85,NNW,344,10.0,10.0,75,0.00,,,0.00,Wunderground v.1.15,2013-02-17 05:10:00,
2013-02-17 00:20:00,20.0,13.3,29.85,NNW,348,12.0,15.0,75,0.00,,,0.00,Wunderground v.1.15,2013-02-17 05:20:00,
2013-02-17 00:30:00,19.7,13.4,29.85,NNW,334,11.0,11.0,76,0.00,,,0.00,Wunderground v.1.15,2013-02-17 05:30:00,
2013-02-17 00:40:00,19.1,13.1,29.85,NW,311,13.0,16.0,77,0.00,,,0.00,Wunderground v.1.15,2013-02-17 05:40:00,
2013-02-17 00:50:00,18.8,13.1,29.84,NW,312,12.0,13.0,78,0.00,,,0.00,Wunderground v.1.15,2013-02-17 05:50:00,
2013-02-17 01:00:00,18.6,13.2,29.84,NNW,329,11.0,11.0,79,0.00,,,0.00,Wunderground v.1.15,2013-02-17 06:00:00,
2013-02-17 01:10:00,18.4,13.3,29.84,North,360,11.0,14.0,80,0.00,,,0.00,Wunderground v.1.15,2013-02-17 06:10:00,
2013-02-17 01:20:00,18.2,13.3,29.84,NNW,342,12.0,12.0,81,0.00,,,0.00,Wunderground v.1.15,2013-02-17 06:20:00,
2013-02-17 01:30:00,18.0,13.4,29.84,NNW,331,11.0,14.0,82,0.00,,,0.00,Wunderground v.1.15,2013-02-17 06:30:00,
2013-02-17 01:40:00,17.6,13.6,29.84,NNW,344,13.0,13.0,84,0.00,,,0.00,Wunderground v.1.15,2013-02-17 06:40:00,
2013-02-17 01:50:00,17.2,13.5,29.83,NW,317,12.0,12.0,85,0.00,,,0.00,Wunderground v.1.15,2013-02-17 06:50:00,
2013-02-17 02:00:00,16.9,13.7,29.83,NNW,338,12.0,12.0,87,0.00,,,0.00,Wunderground v.1.15,2013-02-17 07:00:00,
2013-02-17 02:10:00,16.6,13.4,29.82,NNW,328,11.0,11.0,87,0.00,,,0.00,Wunderground v.1.15,2013-02-17 07:10:00,
2013-02-17 02:20:00,16.3,13.1,29.82,NW,326,12.0,12.0,87,0.00,,,0.00,Wunderground v.1.15,2013-02-17 07:20:00,
2013-02-17 02:30:00,16.1,12.9,29.81,NNW,333,13.0,13.0,87,0.00,,,0.00,Wunderground v.1.15,2013-02-17 07:30:00,
2013-02-17 02:40:00,16.0,12.8,29.80,NW,322,13.0,15.0,87,0.00,,,0.00,Wunderground v.1.15,2013-02-17 07:40:00,
2013-02-17 02:50:00,15.9,12.7,29.80,NNW,338,12.0,12.0,87,0.00,,,0.00,Wunderground v.1.15,2013-02-17 07:50:00,
2013-02-17 03:00:00,15.8,12.6,29.79,NNW,338,12.0,12.0,87,0.00,,,0.00,Wunderground v.1.15,2013-02-17 08:00:00,
2013-02-17 03:10:00,15.7,12.8,29.79,NNW,341,13.0,13.0,88,0.00,,,0.00,Wunderground v.1.15,2013-02-17 08:10:00,
2013-02-17 03:20:00,15.6,12.7,29.77,NNW,345,13.0,17.0,88,0.00,,,0.00,Wunderground v.1.15,2013-02-17 08:20:00,
2013-02-17 03:30:00,15.3,12.4,29.76,NNW,331,15.0,15.0,88,0.00,,,0.00,Wunderground v.1.15,2013-02-17 08:30:00,
2013-02-17 03:40:00,15.2,12.3,29.75,North,355,17.0,17.0,88,0.00,,,0.00,Wunderground v.1.15,2013-02-17 08:40:00,
2013-02-17 03:50:00,15.2,12.3,29.75,North,360,16.0,16.0,88,0.00,,,0.00,Wunderground v.1.15,2013-02-17 08:50:00,
2013-02-17 04:00:00,15.2,12.3,29.76,North,350,15.0,15.0,88,0.00,,,0.00,Wunderground v.1.15,2013-02-17 09:00:00,
2013-02-17 04:10:00,15.2,12.3,29.76,NNW,329,15.0,18.0,88,0.00,,,0.00,Wunderground v.1.15,2013-02-17 09:10:00,
2013-02-17 04:20:00,15.3,12.1,29.76,NW,322,15.0,15.0,87,0.00,,,0.00,Wunderground v.1.15,2013-02-17 09:20:00,
2013-02-17 04:40:00,15.3,11.9,29.74,NNW,345,14.0,14.0,86,0.00,,,0.00,Wunderground v.1.15,2013-02-17 09:40:00,
2013-02-17 04:50:00,15.1,11.7,29.74,NNW,333,15.0,16.0,86,0.00,,,0.00,Wunderground v.1.15,2013-02-17 09:50:00,
2013-02-17 05:00:00,14.8,11.6,29.73,NNW,337,15.0,15.0,87,0.00,,,0.00,Wunderground v.1.15,2013-02-17 10:00:00,
2013-02-17 05:10:00,14.6,11.7,29.73,NW,322,15.0,15.0,88,0.00,,,0.00,Wunderground v.1.15,2013-02-17 10:10:00,
2013-02-17 05:20:00,14.3,11.7,29.73,North,349,14.0,14.0,89,0.00,,,0.00,Wunderground v.1.15,2013-02-17 10:20:00,
2013-02-17 05:30:00,14.2,11.6,29.72,NW,316,14.0,15.0,89,0.00,,,0.00,Wunderground v.1.15,2013-02-17 10:30:00,
2013-02-17 05:40:00,14.1,11.5,29.71,NW,306,15.0,20.0,89,0.00,,,0.00,Wunderground v.1.15,2013-02-17 10:40:00,
2013-02-17 05:50:00,14.0,11.4,29.71,NNW,335,14.0,15.0,89,0.00,,,0.00,Wunderground v.1.15,2013-02-17 10:50:00,
2013-02-17 06:10:00,13.7,10.8,29.71,NW,322,15.0,20.0,88,0.00,,,0.00,Wunderground v.1.15,2013-02-17 11:10:00,
2013-02-17 06:20:00,13.6,11.0,29.70,NNW,337,14.0,15.0,89,0.00,,,0.00,Wunderground v.1.15,2013-02-17 11:20:00,
2013-02-17 06:30:00,13.5,10.9,29.69,NW,321,15.0,17.0,89,0.00,,,0.00,Wunderground v.1.15,2013-02-17 11:30:00,
2013-02-17 06:40:00,13.4,10.8,29.69,NNW,348,16.0,16.0,89,0.00,,,0.00,Wunderground v.1.15,2013-02-17 11:40:00,
2013-02-17 06:50:00,13.3,10.7,29.69,NNW,338,14.0,16.0,89,0.00,,,0.00,Wunderground v.1.15,2013-02-17 11:50:00,
2013-02-17 07:00:00,13.1,10.2,29.68,North,355,15.0,16.0,88,0.00,,,0.00,Wunderground v.1.15,2013-02-17 12:00:00,
2013-02-17 07:10:00,13.1,10.2,29.67,NW,318,16.0,16.0,88,0.00,,,0.00,Wunderground v.1.15,2013-02-17 12:10:00,
2013-02-17 07:20:00,13.1,10.0,29.67,NNW,341,17.0,17.0,87,0.00,,,0.00,Wunderground v.1.15,2013-02-17 12:20:00,
2013-02-17 07:30:00,13.1,10.0,29.67,North,360,17.0,17.0,87,0.00,,,0.00,Wunderground v.1.15,2013-02-17 12:30:00,
2013-02-17 07:40:00,13.1,9.7,29.66,NNW,340,17.0,17.0,86,0.00,,,0.00,Wunderground v.1.15,2013-02-17 12:40:00,
2013-02-17 07:50:00,13.1,9.7,29.66,NNW,345,19.0,22.0,86,0.00,,,0.00,Wunderground v.1.15,2013-02-17 12:50:00,
2013-02-17 08:10:00,13.0,9.9,29.64,NNW,333,19.0,19.0,87,0.00,,,0.00,Wunderground v.1.15,2013-02-17 13:10:00,
2013-02-17 08:20:00,12.8,9.7,29.62,NNW,331,19.0,21.0,87,0.00,,,0.00,Wunderground v.1.15,2013-02-17 13:20:00,
2013-02-17 08:30:00,12.7,9.6,29.62,NNW,339,18.0,22.0,87,0.00,,,0.00,Wunderground v.1.15,2013-02-17 13:30:00,
2013-02-17 08:40:00,12.6,9.5,29.61,North,349,18.0,18.0,87,0.00,,,0.00,Wunderground v.1.15,2013-02-17 13:40:00,
2013-02-17 08:50:00,12.6,9.7,29.59,NNW,340,17.0,17.0,88,0.00,,,0.00,Wunderground v.1.15,2013-02-17 13:50:00,
2013-02-17 09:00:00,12.5,9.6,29.58,NNW,333,19.0,19.0,88,0.00,,,0.00,Wunderground v.1.15,2013-02-17 14:00:00,
2013-02-17 09:10:00,12.7,9.8,29.58,North,360,19.0,21.0,88,0.00,,,0.00,Wunderground v.1.15,2013-02-17 14:10:00,
2013-02-17 09:20:00,12.8,9.9,29.57,NNW,348,17.0,17.0,88,0.00,,,0.00,Wunderground v.1.15,2013-02-17 14:20:00,
2013-02-17 09:30:00,12.9,9.8,29.56,NNW,338,21.0,21.0,87,0.00,,,0.00,Wunderground v.1.15,2013-02-17 14:30:00,
2013-02-17 09:40:00,13.0,9.9,29.55,NNW,336,20.0,20.0,87,0.00,,,0.00,Wunderground v.1.15,2013-02-17 14:40:00,
2013-02-17 09:50:00,13.0,9.9,29.55,NNW,341,20.0,31.0,87,0.00,,,0.00,Wunderground v.1.15,2013-02-17 14:50:00,
2013-02-17 10:10:00,13.0,9.9,29.53,NW,325,21.0,21.0,87,0.00,,,0.00,Wunderground v.1.15,2013-02-17 15:10:00,
2013-02-17 10:20:00,13.1,9.7,29.53,NW,323,21.0,21.0,86,0.00,,,0.00,Wunderground v.1.15,2013-02-17 15:20:00,
2013-02-17 10:30:00,13.3,9.9,29.51,NNW,337,21.0,26.0,86,0.00,,,0.00,Wunderground v.1.15,2013-02-17 15:30:00,
2013-02-17 10:40:00,13.4,10.0,29.51,NNW,342,20.0,25.0,86,0.00,,,0.00,Wunderground v.1.15,2013-02-17 15:40:00,
2013-02-17 10:50:00,13.5,10.1,29.50,North,350,21.0,21.0,86,0.00,,,0.00,Wunderground v.1.15,2013-02-17 15:50:00,
2013-02-17 11:01:00,13.6,10.2,29.49,NW,309,23.0,23.0,86,0.00,,,0.00,Wunderground v.1.15,2013-02-17 16:01:00,
2013-02-17 11:10:00,13.8,10.4,29.48,NW,320,20.0,20.0,86,0.00,,,0.00,Wunderground v.1.15,2013-02-17 16:10:00,
2013-02-17 11:20:00,13.9,10.5,29.47,NNW,334,20.0,21.0,86,0.00,,,0.00,Wunderground v.1.15,2013-02-17 16:20:00,
2013-02-17 11:30:00,13.9,10.5,29.45,NNW,336,20.0,24.0,86,0.00,,,0.00,Wunderground v.1.15,2013-02-17 16:30:00,
2013-02-17 11:40:00,13.9,10.5,29.44,WNW,298,21.0,22.0,86,0.00,,,0.00,Wunderground v.1.15,2013-02-17 16:40:00,
2013-02-17 11:50:00,13.9,10.5,29.43,NNW,333,22.0,22.0,86,0.00,,,0.00,Wunderground v.1.15,2013-02-17 16:50:00,
2013-02-17 12:00:00,13.9,10.5,29.42,NNW,342,23.0,23.0,86,0.00,,,0.00,Wunderground v.1.15,2013-02-17 17:00:00,
2013-02-17 12:10:00,14.1,10.7,29.41,NNW,342,21.0,21.0,86,0.00,,,0.00,Wunderground v.1.15,2013-02-17 17:10:00,
2013-02-17 12:20:00,14.3,10.9,29.39,NNW,338,21.0,21.0,86,0.00,,,0.00,Wunderground v.1.15,2013-02-17 17:20:00,
2013-02-17 12:30:00,14.4,11.0,29.38,NW,311,23.0,26.0,86,0.00,,,0.00,Wunderground v.1.15,2013-02-17 17:30:00,
2013-02-17 12:40:00,14.6,11.2,29.37,NNW,339,20.0,20.0,86,0.00,,,0.00,Wunderground v.1.15,2013-02-17 17:40:00,
2013-02-17 12:50:00,14.8,11.4,29.36,NNW,348,21.0,21.0,86,0.00,,,0.00,Wunderground v.1.15,2013-02-17 17:50:00,
2013-02-17 13:10:00,15.4,11.7,29.34,NNW,336,17.0,21.0,85,0.00,,,0.00,Wunderground v.1.15,2013-02-17 18:10:00,
2013-02-17 13:20:00,15.5,12.1,29.33,NW,325,17.0,17.0,86,0.00,,,0.00,Wunderground v.1.15,2013-02-17 18:20:00,
2013-02-17 13:30:00,15.5,11.8,29.32,NW,308,18.0,18.0,85,0.00,,,0.00,Wunderground v.1.15,2013-02-17 18:30:00,
2013-02-17 13:40:00,15.5,11.8,29.31,NW,313,18.0,18.0,85,0.00,,,0.00,Wunderground v.1.15,2013-02-17 18:40:00,
2013-02-17 13:50:00,15.6,11.9,29.31,NNW,333,18.0,18.0,85,0.00,,,0.00,Wunderground v.1.15,2013-02-17 18:50:00,
2013-02-17 14:00:00,15.6,11.9,29.30,NNW,327,21.0,21.0,85,0.00,,,0.00,Wunderground v.1.15,2013-02-17 19:00:00,
2013-02-17 14:10:00,15.6,11.9,29.29,NNW,338,21.0,21.0,85,0.00,,,0.00,Wunderground v.1.15,2013-02-17 19:10:00,
2013-02-17 14:20:00,15.8,12.1,29.28,NNW,340,20.0,23.0,85,0.00,,,0.00,Wunderground v.1.15,2013-02-17 19:20:00,
2013-02-17 14:30:00,16.0,12.3,29.26,NNW,340,22.0,25.0,85,0.00,,,0.00,Wunderground v.1.15,2013-02-17 19:30:00,
2013-02-17 14:40:00,16.2,12.5,29.26,WNW,302,23.0,23.0,85,0.00,,,0.00,Wunderground v.1.15,2013-02-17 19:40:00,
2013-02-17 14:50:00,16.3,12.6,29.25,NW,314,19.0,19.0,85,0.00,,,0.00,Wunderground v.1.15,2013-02-17 19:50:00,
2013-02-17 15:10:00,16.5,12.8,29.24,North,355,19.0,20.0,85,0.00,,,0.00,Wunderground v.1.15,2013-02-17 20:10:00,
2013-02-17 15:20:00,16.6,12.9,29.23,NW,323,17.0,17.0,85,0.00,,,0.00,Wunderground v.1.15,2013-02-17 20:20:00,
2013-02-17 15:30:00,16.7,13.2,29.23,NNW,336,19.0,19.0,86,0.00,,,0.00,Wunderground v.1.15,2013-02-17 20:30:00,
2013-02-17 15:40:00,16.8,13.3,29.22,WNW,296,18.0,19.0,86,0.00,,,0.00,Wunderground v.1.15,2013-02-17 20:40:00,
2013-02-17 15:50:00,17.1,13.6,29.21,NW,320,17.0,25.0,86,0.00,,,0.00,Wunderground v.1.15,2013-02-17 20:50:00,
2013-02-17 16:00:00,17.2,13.7,29.21,NW,313,16.0,16.0,86,0.00,,,0.00,Wunderground v.1.15,2013-02-17 21:00:00,
2013-02-17 16:10:00,17.3,13.8,29.21,NW,318,16.0,16.0,86,0.00,,,0.00,Wunderground v.1.15,2013-02-17 21:10:00,
2013-02-17 16:20:00,17.4,13.9,29.20,NW,319,16.0,16.0,86,0.00,,,0.00,Wunderground v.1.15,2013-02-17 21:20:00,
2013-02-17 16:30:00,17.6,14.1,29.19,WNW,296,15.0,15.0,86,0.00,,,0.00,Wunderground v.1.15,2013-02-17 21:30:00,
2013-02-17 16:40:00,17.7,14.5,29.19,NW,315,16.0,20.0,87,0.00,,,0.00,Wunderground v.1.15,2013-02-17 21:40:00,
2013-02-17 16:50:00,18.0,14.8,29.17,NW,323,18.0,19.0,87,0.00,,,0.00,Wunderground v.1.15,2013-02-17 21:50:00,
2013-02-17 17:00:00,18.1,15.1,29.17,NW,309,19.0,19.0,88,0.00,,,0.00,Wunderground v.1.15,2013-02-17 22:00:00,
2013-02-17 17:10:00,18.2,15.2,29.17,NW,316,18.0,20.0,88,0.00,,,0.00,Wunderground v.1.15,2013-02-17 22:10:00,
2013-02-17 17:20:00,18.5,15.8,29.17,NW,311,18.0,18.0,89,0.00,,,0.00,Wunderground v.1.15,2013-02-17 22:20:00,
2013-02-17 17:40:00,18.8,16.1,29.16,NW,304,18.0,18.0,89,0.00,,,0.00,Wunderground v.1.15,2013-02-17 22:40:00,
2013-02-17 17:50:00,19.0,16.3,29.16,NW,309,18.0,18.0,89,0.00,,,0.00,Wunderground v.1.15,2013-02-17 22:50:00,
2013-02-17 18:00:00,18.7,15.7,29.15,NW,308,17.0,17.0,88,0.00,,,0.00,Wunderground v.1.15,2013-02-17 23:00:00,
2013-02-17 18:10:00,18.4,15.4,29.15,WNW,294,18.0,18.0,88,0.00,,,0.00,Wunderground v.1.15,2013-02-17 23:10:00,
2013-02-17 18:20:00,18.3,15.3,29.16,NW,322,17.0,17.0,88,0.00,,,0.00,Wunderground v.1.15,2013-02-17 23:20:00,
2013-02-17 18:30:00,18.1,15.1,29.15,West,281,19.0,19.0,88,0.00,,,0.00,Wunderground v.1.15,2013-02-17 23:30:00,
2013-02-17 18:40:00,17.9,14.7,29.15,West,281,18.0,18.0,87,0.00,,,0.00,Wunderground v.1.15,2013-02-17 23:40:00,
2013-02-17 18:50:00,17.4,14.2,29.15,NW,309,18.0,24.0,87,0.00,,,0.00,Wunderground v.1.15,2013-02-17 23:50:00,
2013-02-17 19:10:00,16.7,13.8,29.14,WNW,303,18.0,21.0,88,0.00,,,0.00,Wunderground v.1.15,2013-02-18 00:10:00,
2013-02-17 19:20:00,16.8,13.9,29.15,NW,308,20.0,20.0,88,0.00,,,0.00,Wunderground v.1.15,2013-02-18 00:20:00,
2013-02-17 19:30:00,16.8,13.9,29.15,WNW,296,18.0,18.0,88,0.00,,,0.00,Wunderground v.1.15,2013-02-18 00:30:00,
2013-02-17 19:40:00,16.7,13.8,29.14,WNW,293,18.0,22.0,88,0.00,,,0.00,Wunderground v.1.15,2013-02-18 00:40:00,
2013-02-17 19:50:00,16.7,13.8,29.14,NW,313,20.0,20.0,88,0.00,,,0.00,Wunderground v.1.15,2013-02-18 00:50:00,
2013-02-17 20:00:00,16.5,13.6,29.13,NW,315,20.0,21.0,88,0.00,,,0.00,Wunderground v.1.15,2013-02-18 01:00:00,
2013-02-17 20:10:00,16.4,13.5,29.13,NW,313,20.0,20.0,88,0.00,,,0.00,Wunderground v.1.15,2013-02-18 01:10:00,
2013-02-17 20:20:00,16.4,13.5,29.13,NW,317,18.0,23.0,88,0.00,,,0.00,Wunderground v.1.15,2013-02-18 01:20:00,
2013-02-17 20:40:00,16.7,13.5,29.13,WNW,294,19.0,19.0,87,0.00,,,0.00,Wunderground v.1.15,2013-02-18 01:40:00,
2013-02-17 20:50:00,16.7,13.2,29.13,NW,317,19.0,20.0,86,0.00,,,0.00,Wunderground v.1.15,2013-02-18 01:50:00,
2013-02-17 21:00:00,16.8,13.3,29.12,NW,325,19.0,19.0,86,0.00,,,0.00,Wunderground v.1.15,2013-02-18 02:00:00,
2013-02-17 21:10:00,16.8,13.3,29.13,NNW,328,20.0,20.0,86,0.00,,,0.00,Wunderground v.1.15,2013-02-18 02:10:00,
2013-02-17 21:20:00,16.8,13.3,29.13,NW,311,19.0,19.0,86,0.00,,,0.00,Wunderground v.1.15,2013-02-18 02:20:00,
2013-02-17 21:40:00,16.7,13.0,29.12,NW,306,21.0,21.0,85,0.00,,,0.00,Wunderground v.1.15,2013-02-18 02:40:00,
2013-02-17 21:50:00,16.4,12.7,29.12,WNW,300,19.0,19.0,85,0.00,,,0.00,Wunderground v.1.15,2013-02-18 02:50:00,
2013-02-17 22:10:00,16.2,12.5,29.12,NW,318,18.0,21.0,85,0.00,,,0.00,Wunderground v.1.15,2013-02-18 03:10:00,
2013-02-17 22:20:00,16.0,12.3,29.12,NW,309,17.0,17.0,85,0.00,,,0.00,Wunderground v.1.15,2013-02-18 03:20:00,
2013-02-17 22:30:00,15.9,12.2,29.11,WNW,295,20.0,25.0,85,0.00,,,0.00,Wunderground v.1.15,2013-02-18 03:30:00,
2013-02-17 22:40:00,15.7,12.0,29.11,NW,308,18.0,26.0,85,0.00,,,0.00,Wunderground v.1.15,2013-02-18 03:40:00,
2013-02-17 22:50:00,15.5,11.8,29.11,WNW,287,17.0,20.0,85,0.00,,,0.00,Wunderground v.1.15,2013-02-18 03:50:00,
2013-02-17 23:00:00,15.3,11.6,29.11,WNW,295,18.0,18.0,85,0.00,,,0.00,Wunderground v.1.15,2013-02-18 04:00:00,
2013-02-17 23:10:00,15.1,11.4,29.12,WNW,290,18.0,18.0,85,0.00,,,0.00,Wunderground v.1.15,2013-02-18 04:10:00,
2013-02-17 23:20:00,15.0,11.3,29.11,WNW,302,16.0,16.0,85,0.00,,,0.00,Wunderground v.1.15,2013-02-18 04:20:00,
2013-02-17 23:30:00,15.0,11.0,29.13,NW,304,19.0,19.0,84,0.00,,,0.00,Wunderground v.1.15,2013-02-18 04:30:00,
2013-02-17 23:40:00,15.0,11.0,29.14,NW,305,19.0,19.0,84,0.00,,,0.00,Wunderground v.1.15,2013-02-18 04:40:00,
2013-02-17 23:50:00,14.8,11.1,29.14,WNW,287,17.0,17.0,85,0.00,,,0.00,Wunderground v.1.15,2013-02-18 04:50:00,